Theta_e
307 297 292 290 293 298 300 303 305 307 306 306 304 302 301 301 304 305 306 305 306 305 304 305 305 306 307 308 309 311 310 306 307 307 308 309 309 310 309 309 310 311 313 319 321 324 324 326 327 328 328 328 328 328 328 327 328 329 329 329 329 331 331 331 329 329 329 328 328 329 327 326 327 326 327 326 327 327 328 329 330 331 330 331 330 329
304 294 293 296 297 298 301 303 305 305 305 304 302 302 301 303 302 305 306 303 305 303 304 306 305 306 308 310 310 311 310 308 308 308 309 310 310 311 311 311 311 311 314 316 316 317 321 323 326 327 327 325 326 327 327 327 327 328 328 328 329 330 330 330 330 330 329 330 329 327 327 327 327 326 325 325 326 326 327 328 328 329 330 330 329 328
296 292 295 300 303 303 302 302 303 303 301 303 302 302 301 302 305 301 302 300 303 303 303 305 302 304 307 308 310 310 309 310 312 311 311 312 311 312 312 313 313 314 313 313 313 315 317 321 324 325 326 327 327 328 327 328 328 328 327 328 328 329 329 330 331 330 329 330 330 330 329 328 327 329 329 328 328 328 327 327 327 328 328 329 329 329
291 295 299 302 303 302 301 301 301 300 301 301 302 301 299 303 301 299 300 299 301 304 302 299 299 303 306 308 309 310 309 310 312 313 313 313 312 312 313 314 314 314 315 315 315 313 314 318 321 324 325 326 327 327 328 328 328 328 327 328 328 328 329 329 330 329 332 332 332 332 331 331 329 328 328 329 328 328 327 326 327 327 328 328 328 329
294 300 304 302 301 301 299 301 299 298 296 300 302 302 302 300 302 302 300 299 300 301 299 300 300 302 305 305 307 309 310 309 311 311 312 313 313 314 315 316 316 315 315 315 315 314 313 314 317 321 324 326 326 326 327 328 328 328 328 328 328 328 328 328 328 328 330 330 330 330 330 330 329 329 327 326 325 326 326 326 326 326 328 328 328 329
297 303 304 300 299 299 299 298 299 298 295 298 301 303 303 303 301 297 298 299 299 299 300 300 294 296 303 305 306 309 307 306 309 309 309 310 311 312 312 313 315 316 316 315 315 315 314 313 315 319 323 324 325 326 328 329 329 329 329 329 329 329 328 328 329 329 328 328 327 326 325 323 323 322 323 322 322 324 323 324 327 328 328 328 328 329
298 304 303 299 299 298 298 297 299 301 295 295 298 304 304 302 301 299 297 300 295 294 299 301 294 291 303 303 305 306 306 307 310 308 308 309 310 311 311 312 313 314 314 315 315 315 315 314 314 316 320 323 324 326 328 329 329 329 330 330 330 329 329 329 328 329 327 327 327 326 326 325 324 323 324 326 326 326 326 327 327 327 328 328 327 328
300 301 302 301 300 298 296 295 299 301 297 293 302 303 303 302 300 300 299 300 300 301 298 294 298 293 293 300 306 307 305 306 308 309 309 309 309 309 310 311 312 313 313 314 314 314 314 315 314 313 316 320 322 325 327 328 328 328 329 329 329 329 328 329 329 328 327 326 326 326 326 325 325 325 325 326 326 327 327 327 326 327 327 327 328 327
300 299 299 298 298 297 296 298 301 303 298 299 301 303 301 302 302 301 301 300 300 298 295 295 297 292 292 299 302 303 302 304 305 308 310 311 310 310 310 311 311 312 313 313 314 314 313 313 314 313 314 317 321 324 326 327 328 329 329 329 330 329 329 329 328 327 327 326 327 326 326 325 325 327 327 328 328 327 327 326 327 327 327 327 327 327
301 302 301 301 299 295 300 302 303 303 297 300 300 302 299 299 300 301 301 300 296 295 289 295 296 291 293 300 302 300 302 303 305 308 310 312 312 312 311 311 311 312 312 313 313 314 315 314 314 315 315 315 318 322 325 326 327 328 329 328 328 328 329 328 328 327 327 326 326 326 326 325 326 326 326 327 327 326 327 325 326 327 326 326 325 326
302 307 306 303 299 301 302 303 304 304 304 301 301 299 297 297 296 298 300 298 294 287 290 296 296 296 290 298 301 300 301 304 307 309 311 312 312 313 314 314 313 311 311 311 312 312 313 314 314 314 313 312 314 319 321 323 325 327 327 327 327 328 329 328 328 327 326 326 326 326 326 326 326 326 326 325 326 326 325 324 325 325 325 326 326 326
300 302 300 302 307 305 305 300 303 305 302 300 296 295 296 293 296 296 295 297 288 287 295 299 297 297 288 295 302 306 307 307 307 307 309 311 310 311 311 310 308 308 309 310 310 310 311 311 311 312 311 311 312 315 316 320 323 325 326 326 326 327 328 328 327 327 326 326 326 326 326 326 326 327 326 325 324 325 324 324 324 325 325 325 326 326
294 296 301 302 304 304 301 299 297 299 299 299 297 297 290 286 289 285 289 285 286 286 292 295 298 293 293 298 303 304 306 307 306 307 309 309 309 311 311 310 308 308 308 308 309 309 310 309 309 309 309 310 311 312 314 317 321 323 325 325 325 325 327 327 328 326 326 326 325 325 325 326 326 327 326 326 325 325 324 324 324 324 324 325 325 325
292 299 299 300 303 305 303 295 292 291 296 297 295 293 288 285 284 283 286 289 289 290 292 293 298 292 298 300 305 304 307 309 310 309 309 309 309 311 311 311 308 309 307 308 309 310 310 310 310 310 310 310 311 311 313 315 318 321 323 324 324 325 327 327 327 327 326 325 325 325 325 325 326 325 326 325 324 324 325 325 325 325 325 325 325 325
283 284 292 297 294 304 302 300 298 296 297 297 300 297 291 289 286 283 286 283 285 288 290 294 290 289 291 296 302 305 307 308 308 308 309 309 309 308 308 308 307 306 307 308 308 308 308 308 309 309 310 310 311 311 311 314 317 319 321 322 323 324 326 326 327 327 326 324 324 323 324 324 324 324 324 324 325 326 326 326 326 326 326 326 326 326
288 289 297 302 303 304 300 305 305 301 298 300 302 303 294 290 297 288 290 290 288 287 286 287 290 297 297 304 305 306 305 305 305 305 304 304 304 305 305 306 307 307 308 308 307 307 308 308 308 308 309 309 310 311 311 312 315 318 319 321 323 323 325 325 325 326 326 325 324 323 323 323 323 323 324 325 326 326 327 327 326 326 326 326 327 328
290 287 298 300 303 303 303 305 303 304 288 296 298 292 295 302 299 290 288 289 289 289 287 292 292 296 301 302 304 305 306 306 307 307 305 305 306 304 304 305 306 307 309 309 308 307 307 308 308 308 307 308 308 309 310 311 313 316 318 320 321 323 324 325 325 326 326 325 324 324 324 324 324 324 324 325 326 326 327 327 327 326 327 327 327 328
287 288 297 296 295 303 307 306 305 304 304 300 291 296 301 302 302 294 287 288 287 285 287 291 289 292 293 290 302 303 303 305 306 307 306 305 305 304 306 308 309 310 310 309 307 306 306 306 306 307 307 307 308 308 308 308 311 314 316 319 320 321 322 324 325 325 326 325 325 325 325 325 326 325 325 326 326 327 327 327 327 327 327 327 327 327
297 288 292 297 297 301 306 305 301 303 299 300 297 304 296 288 287 291 289 283 284 283 285 289 291 292 295 295 298 300 300 303 305 307 304 304 304 306 309 310 309 308 306 305 304 304 304 304 304 304 304 304 304 305 306 307 309 312 314 317 319 320 322 324 325 326 326 326 326 326 326 326 326 326 326 327 327 327 327 326 326 326 326 327 327 326
298 288 290 299 298 300 301 300 289 294 300 300 303 300 300 298 293 289 290 290 290 285 285 286 287 286 296 298 301 301 303 305 303 304 305 306 307 307 308 309 307 308 306 304 304 304 305 304 303 302 302 303 303 303 304 304 306 308 311 314 316 319 322 323 324 325 324 326 326 327 327 327 327 327 327 327 326 326 326 326 326 326 326 326 326 326
293 299 287 293 299 300 291 296 293 295 292 294 296 295 294 292 297 298 298 292 289 287 287 287 285 290 297 302 302 302 304 305 306 305 307 308 309 308 307 307 308 306 305 305 305 305 305 303 302 302 301 302 301 300 301 303 304 306 310 313 315 316 319 321 323 324 324 325 326 326 326 326 326 326 326 326 326 326 326 326 325 326 326 326 326 326
292 293 288 289 290 291 295 300 300 299 299 297 296 295 297 293 290 288 287 298 292 290 287 287 284 291 299 304 304 304 305 306 307 308 307 308 308 309 310 306 305 306 305 305 305 303 303 302 301 301 301 300 297 298 299 301 303 305 308 311 314 316 317 318 320 321 323 324 325 325 325 326 326 326 326 325 325 325 325 326 326 326 326 325 325 325
299 297 293 288 291 294 299 301 302 303 302 301 300 297 300 297 295 291 286 289 291 292 291 288 287 289 301 303 305 306 306 307 308 307 307 308 309 308 304 305 305 303 303 304 304 304 303 301 300 300 300 301 301 303 302 302 302 303 305 308 312 314 316 318 319 320 321 322 323 323 325 325 325 325 324 324 324 324 324 325 326 326 325 325 325 324
296 291 290 291 294 296 297 299 302 302 302 298 297 297 298 295 296 295 294 295 291 291 289 290 286 291 298 302 304 305 305 306 305 304 307 307 305 302 303 305 304 303 302 302 301 300 300 299 298 297 299 302 302 302 302 302 302 303 304 305 307 310 313 316 318 318 319 320 321 322 322 323 323 323 323 322 323 323 324 324 325 325 324 323 323 321
291 293 293 286 286 288 290 295 295 297 299 295 295 297 299 300 300 297 292 292 291 291 291 290 285 291 299 297 297 296 297 299 301 300 300 303 304 303 304 303 302 300 300 299 299 300 299 298 298 300 302 304 304 303 303 301 301 301 302 302 303 305 308 311 312 313 315 316 317 317 318 319 320 320 320 321 322 322 323 323 323 322 321 319 319 318
294 294 291 285 282 280 280 281 284 286 291 296 299 298 299 299 298 295 290 290 287 291 292 289 289 296 297 298 298 297 296 297 300 299 296 299 301 302 304 303 301 300 300 300 300 300 301 301 301 300 300 302 302 303 304 302 300 300 300 301 301 302 303 304 305 308 310 311 312 313 313 314 316 316 318 319 319 320 320 319 318 316 316 316 316 315
290 295 295 292 289 288 290 293 297 297 295 291 294 297 297 300 301 299 296 291 288 291 290 293 294 295 294 297 298 300 298 298 302 303 299 299 298 299 299 300 300 300 299 299 299 300 298 299 300 301 302 303 303 302 302 303 303 300 300 300 300 301 302 302 301 302 304 306 307 309 310 310 311 312 314 314 315 316 315 314 313 313 313 312 314 314
288 288 294 295 295 296 295 296 298 298 295 295 295 295 298 298 299 296 291 290 296 291 287 294 297 294 295 297 299 300 300 298 301 305 306 302 302 303 304 300 295 295 297 296 297 300 302 304 303 302 303 302 302 302 301 301 301 303 303 303 302 300 300 300 299 299 300 302 303 305 308 309 309 309 310 311 311 312 312 311 311 310 310 308 309 311
291 288 293 294 293 297 294 299 300 298 298 297 297 297 296 298 297 293 294 297 297 290 288 295 298 295 297 299 301 301 301 299 299 300 303 303 302 300 298 298 301 303 301 299 303 302 303 304 305 305 303 303 301 302 301 301 300 299 299 299 301 300 300 300 298 298 298 300 301 303 305 306 306 306 306 306 307 307 308 308 308 307 307 306 307 307
295 290 293 295 293 295 295 297 300 298 298 297 297 297 298 297 296 297 297 298 298 296 297 297 298 297 300 301 302 302 302 302 299 296 295 296 297 299 300 300 301 303 302 303 303 304 304 304 303 303 305 303 303 303 302 302 301 301 300 301 300 299 300 299 298 298 298 299 300 302 303 303 303 302 303 302 303 305 305 305 304 304 302 303 302 303
296 290 294 294 290 291 295 295 297 299 297 295 297 297 297 297 297 297 298 298 298 297 298 298 297 297 302 304 303 304 303 301 298 297 297 299 299 299 300 302 303 304 303 301 302 303 302 301 301 301 300 303 304 304 304 304 303 301 300 301 300 299 300 299 299 298 299 300 300 300 300 301 301 300 299 300 300 301 301 301 300 300 300 299 299 301
297 291 295 293 288 288 293 293 294 296 296 295 295 295 295 295 293 296 295 298 297 295 297 297 295 296 302 304 305 305 303 301 301 303 302 301 299 299 301 303 305 306 304 303 303 303 302 302 303 301 302 303 304 304 303 302 302 301 302 302 300 301 300 299 299 299 299 299 299 299 299 299 300 299 299 299 298 299 298 299 298 297 298 298 297 298
294 291 290 290 287 287 292 294 292 291 288 287 290 294 296 296 297 299 300 300 300 300 296 293 294 301 303 303 303 303 304 304 304 305 304 302 301 300 301 304 306 305 304 307 306 305 306 305 304 305 305 304 304 304 303 303 302 303 306 302 302 300 299 299 299 299 299 299 298 297 297 298 299 299 298 298 297 297 297 297 296 297 297 298 298 297
293 292 289 292 287 288 290 290 291 287 282 283 296 301 299 297 297 296 296 299 301 301 299 302 302 303 303 303 302 302 303 304 305 307 308 304 303 302 302 303 305 305 305 305 306 307 308 307 307 306 306 307 308 306 305 303 304 307 305 304 301 299 299 300 299 299 298 297 297 297 297 296 297 298 297 296 295 295 295 295 295 296 297 297 297 298
290 290 288 288 287 287 287 287 285 280 282 295 300 301 302 301 300 298 300 301 301 302 302 301 302 303 303 304 305 305 306 307 307 307 307 306 305 305 305 304 303 304 304 304 305 305 305 306 307 307 306 305 305 305 303 302 302 303 301 300 300 300 300 300 300 299 298 298 298 297 297 297 296 296 296 296 294 294 294 295 296 296 296 296 296 297
289 289 287 286 286 287 286 286 279 281 290 298 300 300 302 302 300 299 297 300 302 302 302 301 302 304 304 303 304 304 306 306 307 307 307 308 308 306 305 306 306 305 305 307 307 308 309 308 308 308 308 309 307 306 304 305 304 302 302 299 301 300 299 300 299 300 299 298 298 298 297 297 297 296 295 294 293 293 293 294 295 295 295 295 296 297
295 292 290 287 288 283 285 285 285 291 290 293 294 297 298 295 296 295 290 296 302 303 303 302 303 304 304 305 301 301 300 301 301 303 307 307 308 305 305 305 305 305 306 307 308 308 310 311 311 311 310 309 308 306 304 304 303 302 300 298 298 298 297 297 298 299 299 298 299 298 298 297 296 295 295 294 294 294 294 294 294 295 296 295 295 295
295 291 292 288 287 289 286 283 285 284 282 289 296 301 303 303 303 302 297 294 303 303 304 303 302 303 304 304 301 299 302 300 298 301 306 308 307 306 304 305 304 304 304 305 306 307 308 309 308 307 307 306 305 305 305 303 301 300 299 299 298 297 296 296 298 300 300 300 300 299 299 298 296 295 294 294 294 293 294 294 295 295 293 294 294 293
291 292 290 290 288 287 286 283 283 282 286 295 297 301 303 302 302 301 294 290 300 303 304 304 302 303 304 302 299 300 300 295 297 302 308 305 304 305 302 301 303 304 304 304 305 305 307 308 307 304 302 303 303 306 304 301 299 299 300 300 299 297 298 297 299 300 300 301 301 300 299 298 297 296 295 294 294 294 293 294 293 293 292 293 293 293
287 287 288 286 285 286 286 284 283 287 287 293 295 298 301 303 303 297 286 287 299 300 304 303 302 303 304 303 300 300 299 295 298 303 304 306 304 304 304 303 302 302 303 305 305 305 305 300 300 302 303 303 305 305 301 299 299 298 299 299 299 297 297 298 300 301 301 300 299 299 298 298 296 295 295 294 294 294 293 293 292 292 291 291 293 293
286 286 287 284 286 286 286 286 288 288 295 293 295 298 301 304 299 288 283 293 292 292 296 300 303 304 305 303 300 299 302 305 306 305 304 303 304 302 299 298 300 302 304 304 304 299 302 302 302 303 303 304 302 300 297 297 297 296 297 298 297 295 297 299 299 299 298 298 298 298 298 298 297 295 293 293 293 293 292 293 292 292 291 290 292 292
285 286 286 287 285 285 286 284 285 289 291 289 292 297 300 297 287 286 291 288 289 290 292 295 297 303 305 303 301 303 305 307 307 301 300 298 299 296 295 295 297 297 297 295 294 295 299 298 298 298 298 297 297 296 296 295 295 295 297 295 295 297 299 299 298 297 296 297 296 296 296 294 293 292 292 291 291 291 291 291 291 290 290 292 291 289
286 285 283 284 287 288 287 285 284 280 288 291 291 294 291 289 287 289 288 290 290 290 290 291 292 292 298 302 303 304 304 301 299 300 298 297 299 299 299 297 299 300 300 299 299 295 295 298 298 298 297 296 295 295 294 292 291 293 294 294 295 297 297 296 295 295 296 295 295 292 291 291 290 290 291 290 290 290 290 290 289 289 289 289 289 289
291 286 286 286 291 284 284 282 283 287 287 291 293 289 288 288 290 290 290 288 290 289 289 290 291 291 293 298 298 300 299 299 300 298 300 299 298 297 295 294 294 294 294 294 294 294 293 294 295 295 295 293 293 292 292 291 290 290 291 293 296 295 294 294 294 291 292 290 291 290 289 289 289 289 290 290 290 290 289 289 289 289 290 290 290 290
290 288 289 287 290 288 286 287 287 288 289 291 290 289 290 290 291 290 289 288 288 288 290 289 289 291 292 294 293 293 293 293 294 294 294 294 294 293 292 292 292 291 291 291 291 290 289 291 291 292 291 292 292 292 290 289 289 288 289 293 294 291 291 291 290 289 289 289 289 289 289 289 289 289 289 289 290 289 289 288 288 289 289 289 289 290
289 290 288 290 285 289 290 291 290 288 289 290 291 291 290 290 290 290 289 287 287 288 290 289 290 290 291 292 292 292 291 292 293 293 293 293 293 293 292 293 292 292 292 291 291 289 289 289 288 288 289 290 290 291 289 289 288 287 290 293 291 291 289 288 288 288 288 288 288 289 288 288 288 288 288 288 290 290 291 290 289 290 290 290 290 290
290 289 289 288 290 288 282 288 287 287 288 289 290 290 290 290 289 289 288 288 287 288 289 290 290 290 291 291 291 291 291 292 292 292 292 293 293 292 292 292 292 292 291 290 289 287 288 288 288 288 288 288 290 289 289 287 288 289 290 288 288 287 286 286 287 287 288 288 289 289 288 288 290 290 289 288 289 290 291 291 291 290 290 290 289 289
287 292 289 287 287 287 285 285 286 287 287 288 288 288 288 288 288 288 288 288 288 288 288 289 290 289 291 290 291 291 291 291 291 291 291 291 291 292 292 291 291 291 291 291 290 287 287 287 287 287 287 288 289 288 287 286 286 287 286 286 285 285 285 286 287 288 288 288 289 289 289 289 288 289 290 289 289 289 290 290 290 290 290 290 290 290
288 291 286 288 285 285 286 286 286 286 286 286 286 287 287 288 287 287 287 287 287 287 287 289 290 289 290 289 290 290 290 290 290 290 290 290 290 290 291 290 291 291 291 290 288 287 288 287 287 287 287 288 288 286 286 285 285 285 284 283 283 282 284 286 287 287 287 287 289 289 289 289 289 290 290 290 289 290 290 290 290 290 290 290 292 292
288 285 287 287 283 282 283 284 286 284 283 284 285 286 286 287 287 286 286 286 286 286 287 287 288 289 289 290 289 289 288 289 289 290 289 290 290 290 290 290 290 290 290 289 288 288 287 287 287 286 287 288 287 285 284 284 284 283 282 279 279 280 283 285 286 287 287 288 289 288 289 289 289 289 289 290 290 289 289 288 288 290 291 291 289 288
286 286 286 285 284 282 285 285 287 287 285 286 286 286 287 286 286 285 285 285 286 286 286 286 286 287 287 288 289 287 287 287 288 289 288 289 289 290 290 290 289 289 289 288 287 287 287 287 286 286 286 287 286 285 284 283 282 280 278 276 277 278 281 282 286 288 289 288 289 289 288 289 289 288 289 288 289 289 288 288 289 287 287 288 288 288
Wind_Speed
8 7 7 11 12 13 16 13 10 9 9 5 10 12 10 11 11 3 2 5 5 7 12 14 15 20 17 14 15 15 9 7 9 12 12 11 10 10 9 11 11 12 14 9 10 10 10 11 12 12 12 12 13 14 14 14 15 15 14 13 15 13 15 14 13 13 14 13 12 10 12 12 11 10 10 10 10 11 10 12 12 12 11 11 11 11
7 8 12 14 14 13 13 15 11 12 11 9 11 13 12 14 16 8 8 5 4 7 9 12 15 20 18 15 15 14 15 16 16 16 17 16 14 11 12 12 12 12 7 7 8 9 9 10 12 12 11 13 14 15 15 16 17 16 16 16 14 11 14 16 15 14 13 14 14 13 13 13 11 11 10 11 11 12 11 11 12 11 12 11 12 11
8 13 15 14 12 9 7 9 11 11 10 10 10 11 12 13 5 4 3 3 5 4 10 7 10 16 17 15 15 15 13 16 17 17 19 18 16 15 14 15 15 12 12 12 14 11 10 11 13 12 12 13 16 16 18 17 16 16 16 15 14 13 13 14 14 14 14 14 13 13 11 13 11 12 11 11 11 10 10 11 12 11 11 12 11 12
11 14 16 14 10 9 10 12 14 13 11 9 9 11 15 10 9 8 4 4 5 6 2 2 8 13 18 15 15 13 15 18 20 19 19 16 17 18 18 16 14 16 16 16 16 13 12 12 12 12 12 13 13 14 14 15 16 14 14 15 15 14 14 13 14 13 12 12 13 13 12 12 12 10 10 12 12 12 12 13 12 12 11 12 12 13
16 7 15 15 14 13 12 11 14 12 13 11 12 14 9 11 12 2 6 5 3 5 3 7 10 13 16 16 13 13 18 18 19 16 17 16 16 17 16 16 17 18 16 14 15 13 12 12 14 15 14 13 14 15 14 15 15 12 17 17 16 14 15 14 14 14 12 9 10 12 11 11 11 11 10 10 12 13 11 11 12 13 13 14 14 13
14 8 16 15 16 16 14 12 14 13 13 12 12 12 7 11 9 7 9 8 4 7 10 8 7 12 12 15 16 10 9 15 16 16 16 16 17 16 17 19 18 16 14 15 15 14 14 14 13 13 13 14 14 14 15 15 16 16 15 16 16 14 14 14 15 15 13 11 11 12 13 13 12 13 13 14 14 12 13 14 12 13 14 14 14 13
8 13 16 17 15 15 15 14 14 12 12 11 7 8 8 9 10 10 9 6 9 12 4 7 12 9 5 10 6 6 7 12 12 11 16 15 15 15 15 15 14 14 14 14 15 13 13 14 13 14 14 16 15 15 13 14 16 17 14 15 16 15 14 13 14 15 13 13 12 15 15 13 12 12 12 11 9 10 10 9 11 11 11 13 12 13
9 11 12 15 16 14 12 13 13 14 11 12 1 7 4 10 11 11 9 9 8 4 3 3 6 10 13 12 10 10 8 12 16 12 14 13 14 14 14 14 15 15 15 13 15 16 15 15 15 16 17 15 16 13 12 14 14 17 17 16 16 13 13 12 12 15 14 14 13 14 14 12 12 13 12 10 10 9 9 10 10 9 9 11 12 13
19 14 18 16 14 12 14 17 12 14 11 4 4 8 7 10 8 9 8 7 2 3 12 8 5 6 11 5 4 5 11 14 17 17 18 15 13 13 13 14 16 17 17 16 13 15 16 17 16 15 13 14 13 11 13 14 13 14 15 15 14 14 13 12 15 14 16 14 13 14 13 13 12 12 11 8 8 9 9 10 9 10 9 9 11 12
9 18 17 17 13 13 14 10 11 14 14 6 4 2 4 6 6 4 6 5 2 4 13 10 11 10 15 13 10 6 9 14 16 18 17 13 12 13 13 14 15 14 12 13 17 16 15 15 15 14 10 8 11 12 11 11 10 10 11 13 14 15 13 13 15 15 16 16 14 13 14 15 13 11 10 9 9 8 9 11 11 10 9 8 9 11
2 1 13 10 11 10 13 12 15 17 10 5 6 8 4 6 4 3 3 3 2 9 14 9 14 12 14 12 14 10 11 14 14 11 9 10 11 13 12 10 8 9 9 9 11 13 13 11 11 10 11 13 11 9 11 11 12 12 12 13 15 17 13 14 15 16 17 16 16 15 15 16 15 13 12 10 10 9 10 10 10 10 9 9 10 10
3 8 9 3 4 2 9 8 9 11 10 12 3 5 7 2 3 3 2 4 8 12 5 15 14 16 15 8 6 12 5 7 13 15 13 9 8 9 8 6 7 8 8 8 9 11 11 10 10 8 12 13 12 10 12 12 12 12 13 14 16 16 16 14 14 15 16 15 16 16 15 15 15 14 11 13 13 12 13 12 10 9 8 9 9 9
4 6 2 6 1 15 10 10 2 7 9 10 6 7 10 2 4 5 3 8 13 13 2 2 14 12 24 18 6 1 6 9 7 8 8 6 7 6 5 5 6 5 4 5 7 8 8 10 11 11 13 11 11 12 14 13 12 12 13 15 17 17 17 16 16 17 17 16 16 15 16 15 13 14 14 12 11 10 10 10 10 10 10 10 10 12
6 3 7 7 5 7 14 12 7 7 10 11 12 11 10 5 6 10 8 2 5 2 1 2 4 13 8 9 20 21 16 12 11 11 11 10 9 8 4 2 2 3 5 6 7 7 8 8 9 11 13 13 11 13 12 12 12 12 11 14 16 17 16 15 15 17 17 17 16 16 15 14 12 12 11 10 10 11 10 10 12 12 11 10 12 11
14 12 12 13 9 9 12 14 17 13 17 17 14 15 13 11 5 12 11 14 10 5 3 5 5 6 9 4 5 5 8 8 8 6 4 7 8 6 5 5 5 6 7 7 7 8 8 8 9 9 10 10 11 12 12 11 12 12 12 14 16 15 14 15 16 15 17 15 14 12 12 12 10 12 11 12 11 12 12 11 11 11 10 10 11 10
11 5 7 20 10 22 20 15 14 11 10 11 10 6 8 12 2 8 1 4 3 3 3 5 8 3 7 9 8 6 7 9 8 9 5 8 6 5 7 8 7 7 7 7 8 9 10 9 8 8 8 8 9 11 10 12 11 12 13 15 16 17 15 15 15 14 14 13 10 11 14 15 14 11 11 11 10 11 11 11 11 11 11 11 10 9
7 12 8 11 2 16 19 16 13 16 13 10 9 14 10 1 7 3 1 3 3 1 11 6 8 10 8 14 19 16 13 13 11 8 8 9 5 4 7 8 9 8 7 6 7 7 9 8 8 7 8 7 8 8 9 11 11 13 12 12 14 14 13 14 15 14 12 11 11 13 14 13 14 14 14 13 14 13 11 10 10 10 11 10 10 9
12 9 13 21 18 17 18 17 15 18 3 10 12 10 4 2 3 7 9 2 5 9 7 11 16 11 6 11 1 8 17 20 19 16 8 5 5 6 8 8 8 7 7 6 7 8 9 8 8 7 7 8 8 9 9 10 9 9 10 12 13 13 15 14 14 14 13 13 13 14 14 15 14 14 14 13 12 10 10 10 10 10 10 11 9 8
4 1 1 14 21 13 11 15 10 11 3 8 11 11 14 8 8 0 2 10 8 11 8 8 11 10 14 12 1 6 6 9 11 11 5 6 6 7 7 8 5 4 5 5 6 7 7 7 7 7 7 6 7 8 8 7 8 8 9 10 12 14 14 13 11 12 11 13 10 11 13 15 14 13 12 11 10 9 10 11 11 11 11 9 9 9
7 4 5 8 10 9 8 11 14 12 9 7 3 11 3 2 8 11 10 1 3 12 7 8 8 11 13 13 11 19 11 5 3 4 8 10 7 5 4 4 3 3 4 5 5 6 6 5 4 5 5 6 6 7 7 8 6 9 10 10 11 10 10 11 12 11 12 12 12 11 11 12 12 12 11 12 12 12 11 12 11 12 12 13 10 11
8 3 7 5 7 12 11 9 13 16 15 9 7 10 2 3 3 3 4 9 5 8 11 11 8 8 8 14 16 21 15 16 8 6 7 6 4 5 6 5 4 5 5 6 4 4 4 3 3 3 3 4 4 4 4 6 8 9 8 9 11 12 12 12 11 11 12 11 12 12 14 13 13 16 14 16 15 15 14 12 12 13 13 11 13 14
5 7 8 6 9 13 11 14 22 22 22 18 15 16 16 13 9 14 10 3 6 6 7 7 15 3 2 6 15 15 12 14 15 12 10 9 8 8 3 2 6 7 6 5 5 4 4 4 4 4 2 2 3 5 6 6 6 7 8 8 8 9 10 11 11 11 11 10 10 12 12 13 11 12 15 14 15 16 15 14 14 14 14 14 15 14
4 3 7 9 11 13 11 8 7 14 16 13 10 10 13 12 6 5 12 9 1 8 3 2 8 6 7 9 7 6 8 10 7 0 6 4 5 4 3 6 6 6 7 6 5 4 4 5 4 4 4 4 5 5 5 5 6 6 7 7 7 9 11 11 10 9 8 9 9 11 11 11 12 14 15 16 15 16 16 16 16 14 15 15 14 13
1 3 8 4 3 3 4 1 2 7 11 5 4 0 6 12 15 13 10 5 10 4 9 6 10 4 4 2 6 6 5 4 1 4 8 6 3 3 6 6 6 5 6 6 5 5 5 5 4 4 6 5 5 6 6 4 4 5 5 6 6 9 9 7 6 5 7 7 8 9 9 10 11 15 15 16 15 17 17 15 15 14 14 14 12 11
7 7 9 7 6 4 1 3 1 0 6 8 10 12 14 14 15 4 4 2 8 14 9 10 15 9 4 3 2 3 2 6 5 4 3 5 5 4 5 5 4 5 6 6 5 5 4 4 5 5 5 5 4 4 4 4 4 5 5 5 6 5 3 3 3 4 5 6 8 7 8 10 12 15 16 17 16 17 17 14 11 8 10 7 7 8
6 8 13 14 14 12 12 14 16 12 17 10 14 16 17 19 19 10 12 4 10 8 15 11 15 4 3 2 3 2 1 5 5 1 2 6 6 5 4 4 4 4 6 6 5 3 4 3 3 3 4 4 4 4 4 4 4 4 4 4 4 4 4 4 3 4 5 5 7 8 10 11 13 15 17 16 15 14 11 8 8 7 8 8 10 8
3 5 9 12 12 13 15 13 12 19 15 17 18 20 22 22 23 17 6 9 13 10 12 16 19 3 3 5 4 5 3 7 8 7 7 8 8 7 6 5 3 4 5 6 4 2 3 5 6 5 4 3 3 4 4 4 4 4 4 4 5 5 5 5 5 5 5 7 10 11 12 12 13 12 13 12 12 9 7 8 8 8 8 8 9 10
1 2 10 15 14 6 6 6 8 14 18 20 23 24 22 19 19 17 14 16 17 11 14 13 13 10 11 6 6 7 6 6 9 12 10 7 7 8 6 3 4 5 6 4 4 3 2 4 4 4 4 3 4 3 3 3 3 3 4 4 4 4 4 3 4 5 6 7 8 11 11 12 11 11 11 9 8 8 8 7 8 9 8 7 9 9
6 8 11 13 17 10 3 4 10 11 12 13 15 18 20 18 19 20 23 23 14 9 16 24 10 11 17 14 11 11 11 10 11 12 13 10 8 4 4 5 5 5 2 3 4 3 3 3 4 3 2 3 3 5 4 2 3 3 3 3 3 4 5 5 4 5 5 6 8 9 7 6 9 8 8 9 9 8 8 8 8 7 7 8 10 9
5 9 10 12 16 15 5 4 10 16 13 13 14 16 16 20 22 22 21 21 14 13 19 22 9 20 21 14 14 8 7 8 4 4 3 0 3 5 5 5 5 3 3 2 2 2 4 5 4 4 3 4 5 4 4 4 3 4 4 4 4 5 5 5 5 5 6 7 8 5 4 6 7 8 9 9 10 11 9 8 8 8 8 9 8 8
10 11 12 9 10 13 14 3 4 12 13 14 14 13 16 17 17 20 18 17 16 19 23 26 17 22 14 5 7 6 6 5 7 11 7 5 6 7 7 6 6 5 4 3 3 4 3 3 4 4 4 5 6 7 4 4 2 2 4 5 5 5 6 6 6 6 7 8 6 5 5 5 6 8 10 10 9 9 8 9 8 8 8 8 8 9
11 5 8 8 8 10 14 14 10 9 11 14 15 16 15 15 17 18 19 19 17 22 27 23 16 18 13 9 7 8 7 9 13 13 7 5 3 3 5 5 5 4 2 3 3 3 4 5 4 3 5 6 7 7 6 2 2 2 5 3 4 4 5 5 5 6 7 6 5 5 6 7 7 7 10 10 11 10 8 7 8 9 9 8 9 8
7 6 7 10 10 14 15 15 13 3 1 6 13 17 20 22 23 21 21 21 19 21 17 16 21 19 4 10 14 15 15 11 8 13 11 3 4 6 8 8 6 4 4 5 5 6 6 6 6 7 7 7 7 6 6 5 5 7 7 5 5 4 5 6 5 5 6 6 6 7 7 8 9 9 10 11 9 8 7 8 9 9 9 10 8 6
4 6 4 6 10 12 9 7 6 4 13 12 12 22 25 24 25 21 21 23 22 18 16 16 15 6 9 12 14 15 17 17 15 13 2 8 10 10 7 5 6 5 4 4 5 6 7 4 5 6 8 8 7 5 5 8 8 7 5 4 4 6 6 6 6 6 7 6 7 7 8 10 10 11 11 8 7 7 8 9 11 9 8 7 7 9
12 4 4 0 6 7 8 10 7 15 15 16 7 13 18 21 20 21 19 18 16 17 21 25 23 16 9 6 8 11 12 14 12 16 16 13 10 12 12 8 6 4 4 6 7 8 8 8 8 7 8 9 7 3 5 6 6 5 4 5 5 5 5 6 5 6 7 7 8 7 8 10 10 11 10 9 8 8 9 10 10 10 9 8 9 10
13 13 4 3 0 2 5 10 10 12 5 2 8 9 9 11 11 12 21 22 22 25 30 29 27 17 6 6 4 2 5 7 9 16 20 18 15 14 10 9 8 8 9 9 11 11 11 12 12 11 11 6 6 6 5 5 4 5 5 3 4 4 5 5 5 6 6 8 8 9 9 9 10 10 10 8 8 10 13 11 11 10 8 7 7 7
13 10 9 5 4 6 3 6 9 4 4 6 7 8 14 17 20 20 18 21 24 20 17 18 16 9 12 9 6 3 3 1 7 16 18 15 8 5 8 9 9 10 12 14 14 16 17 15 11 7 4 5 4 3 5 5 4 4 4 5 5 4 5 5 6 7 8 9 8 8 7 8 9 10 10 9 10 12 13 12 10 8 7 9 9 9
3 14 10 11 8 11 6 4 2 5 10 9 15 12 17 16 12 5 7 18 6 14 18 21 23 17 16 9 9 7 5 2 11 19 15 8 9 11 10 9 9 10 12 13 13 13 12 10 8 4 4 6 6 5 4 4 5 6 7 8 6 6 6 6 9 8 7 9 8 6 7 7 9 10 10 10 13 13 11 9 7 9 6 10 10 10
5 4 1 14 5 9 10 12 7 6 11 4 3 7 8 7 11 11 5 17 8 14 15 20 20 15 13 13 11 11 7 9 18 19 5 12 10 11 11 14 15 15 16 14 12 12 13 10 6 5 4 5 8 5 3 4 6 6 7 7 7 6 6 7 8 7 9 9 4 4 6 7 8 10 10 13 13 11 11 11 10 7 5 8 7 7
3 2 3 6 6 3 9 10 11 5 8 6 4 2 10 14 13 9 10 13 8 5 11 11 17 13 13 14 14 14 13 15 18 5 8 9 10 12 13 13 12 13 13 12 11 9 5 3 5 6 7 8 10 7 0 3 4 6 7 8 7 7 9 10 14 14 8 5 3 5 6 7 9 10 11 12 11 10 10 7 6 8 8 7 7 5
4 2 4 7 10 9 10 5 1 4 4 6 5 2 7 13 14 12 15 8 10 11 12 11 13 10 11 12 13 13 18 17 14 5 4 4 6 2 5 4 1 3 7 7 8 6 5 3 3 6 7 7 4 3 1 2 4 7 9 9 8 11 13 14 8 4 5 3 4 6 7 7 9 11 10 9 8 7 6 6 7 6 7 7 6 6
2 2 1 3 7 8 4 5 5 2 2 4 7 4 3 4 8 10 3 5 6 12 12 7 9 6 10 13 11 11 14 19 14 6 5 6 6 4 2 1 1 1 0 1 3 3 2 1 3 5 7 5 4 3 2 3 6 7 7 7 11 14 9 5 3 3 3 6 6 7 8 8 5 6 6 5 5 6 7 5 4 5 5 5 6 8
8 8 7 8 3 2 5 7 5 11 2 10 9 4 8 2 0 3 7 5 11 8 9 11 10 11 9 4 6 8 3 8 8 5 4 1 4 4 2 2 1 2 3 3 3 2 1 3 5 5 5 5 5 4 2 1 4 6 7 8 12 4 3 3 3 4 5 5 6 6 6 6 7 7 4 5 5 6 5 4 4 5 5 6 6 8
6 2 1 2 5 4 7 8 5 4 3 10 2 6 4 3 5 5 2 7 9 8 10 9 12 10 8 6 6 5 6 6 6 6 4 6 7 5 3 4 6 7 7 6 7 7 6 6 6 7 7 7 6 5 1 2 4 4 4 11 5 4 3 4 4 2 4 4 5 5 5 5 5 5 4 5 5 5 5 4 4 4 5 6 6 7
1 2 1 3 1 2 2 4 7 4 6 7 12 11 9 9 7 6 8 8 9 11 8 8 11 11 12 7 11 10 9 8 5 5 6 5 6 7 7 6 5 4 4 5 5 5 3 5 6 6 7 6 7 6 3 1 3 4 6 5 4 3 3 3 3 4 4 4 4 4 3 3 3 4 5 5 6 6 6 6 6 6 5 6 6 6
2 1 1 4 3 9 11 9 5 4 4 10 10 9 10 9 7 7 8 8 9 8 8 8 9 10 11 10 10 11 9 5 7 8 8 6 6 6 5 6 6 5 4 4 5 6 5 4 2 3 6 8 4 5 4 3 1 5 7 5 6 6 5 5 5 4 4 4 3 3 2 3 3 3 3 3 5 6 6 7 7 8 7 7 7 7
1 1 1 3 6 4 5 1 6 7 6 8 10 8 8 8 7 6 7 7 6 7 8 9 9 9 9 9 12 9 10 9 9 8 8 8 9 9 9 9 8 7 8 8 5 4 5 4 5 5 4 5 4 3 4 5 4 4 7 7 5 6 6 5 4 5 4 5 3 2 2 3 2 2 3 4 4 5 5 6 6 7 7 7 8 7
1 2 4 1 2 0 6 9 5 6 7 6 6 7 8 8 8 7 4 4 4 5 6 7 8 10 10 12 12 12 12 11 11 10 9 9 9 9 10 9 10 9 8 5 5 5 4 6 7 7 5 4 5 4 4 4 5 5 5 6 5 6 6 5 4 4 4 4 3 2 2 3 5 4 3 4 6 6 5 6 6 7 8 9 9 9
1 1 3 2 4 4 7 5 8 7 7 8 6 6 6 5 6 6 6 7 7 10 10 9 9 8 10 10 10 11 12 13 12 10 11 9 10 10 10 10 9 8 8 9 9 7 6 6 8 7 6 5 3 3 3 5 6 6 7 7 6 5 5 4 4 4 4 4 2 3 2 2 2 3 3 3 4 6 6 7 7 7 7 6 5 7
1 4 1 6 7 4 3 3 5 4 2 3 4 4 5 5 4 6 6 9 10 10 9 8 9 9 9 9 10 11 12 10 12 10 11 10 9 10 10 9 9 10 10 7 4 6 7 7 7 8 8 5 2 1 2 3 5 6 6 7 7 6 4 4 4 3 3 2 2 2 2 2 2 2 3 3 3 4 5 7 8 7 7 6 8 11
2 1 2 2 2 5 6 6 7 7 7 2 3 3 4 4 4 8 9 8 7 6 6 7 9 9 10 10 9 10 10 10 11 10 9 9 10 9 9 9 9 9 10 11 13 14 13 10 9 9 10 7 5 2 1 1 2 4 6 7 7 7 6 4 3 3 3 2 2 2 2 2 2 2 2 2 2 3 4 4 6 11 11 10 8 8
Wind_Direction
144 137 171 205 212 218 226 239 246 272 335 218 184 191 196 197 214 166 221 118 193 223 225 229 240 252 248 237 231 229 215 217 241 248 246 241 239 234 233 233 232 229 233 227 226 216 206 204 204 205 201 206 208 211 212 211 210 208 206 202 207 201 206 207 207 210 211 212 213 213 216 218 212 207 207 213 215 220 222 220 223 226 227 228 225 219
143 156 209 206 207 214 225 236 262 288 300 209 179 186 195 197 217 185 192 135 182 215 238 229 244 254 253 245 238 231 237 244 235 238 245 243 238 241 238 237 234 235 230 234 239 223 211 209 208 204 203 199 201 209 210 212 211 210 209 211 209 199 203 209 209 208 209 212 212 209 214 214 216 212 207 217 217 219 221 221 225 227 229 228 225 222
168 196 210 198 195 211 244 256 263 262 267 248 199 184 194 206 172 69 115 106 158 202 254 239 248 260 260 250 244 231 229 245 244 239 243 243 242 243 245 244 245 240 230 226 235 221 211 209 208 205 206 204 206 207 208 211 209 208 208 212 209 204 199 206 206 207 211 211 211 209 211 211 219 224 224 223 225 221 223 223 222 222 225 227 227 222
197 217 203 175 179 191 207 228 241 257 269 252 219 188 202 163 162 203 149 163 180 207 298 349 283 271 273 261 250 224 221 241 244 238 241 235 239 241 243 241 239 240 239 232 230 219 209 206 206 207 209 208 204 209 209 206 208 208 211 209 208 206 204 203 203 204 206 204 205 210 218 218 221 225 224 229 230 230 226 225 221 222 222 225 224 221
202 171 166 166 177 190 209 206 222 230 245 256 244 209 188 143 190 216 158 143 150 249 328 289 275 270 263 262 249 220 217 234 245 240 237 235 235 240 244 245 237 241 238 233 234 225 212 205 210 206 206 203 205 207 204 200 200 204 208 207 205 206 206 206 204 200 202 194 193 209 219 226 227 231 230 224 228 224 222 223 219 220 218 220 222 223
221 157 136 158 175 191 198 215 216 215 232 240 262 248 181 160 134 105 128 143 196 231 207 218 275 257 256 251 248 248 195 227 238 236 237 232 232 230 234 236 238 238 236 234 232 223 209 211 213 208 207 205 210 209 207 202 204 205 207 203 203 204 207 207 205 199 195 198 196 198 210 212 215 222 221 221 219 211 213 216 219 219 216 220 223 225
208 147 154 160 169 183 194 210 219 209 226 231 225 246 200 149 142 141 151 167 235 244 161 196 234 269 268 252 235 215 209 235 243 220 239 233 235 232 231 236 240 236 233 232 237 231 216 214 214 211 208 208 209 212 201 202 207 207 206 202 200 201 204 204 202 194 191 200 201 201 206 210 209 213 219 216 210 202 202 200 204 209 209 213 216 225
166 158 148 157 167 174 191 212 212 205 213 231 192 190 182 141 147 162 168 197 234 34 100 200 239 267 275 260 246 249 229 247 255 239 237 230 229 227 229 233 234 236 234 231 228 226 224 220 211 216 211 207 212 205 195 205 206 206 205 201 202 202 202 199 194 192 192 199 201 202 206 209 213 212 218 203 201 198 194 196 203 203 204 204 214 226
179 164 165 168 170 178 198 206 191 197 215 244 220 178 180 161 151 150 186 210 264 0 259 188 173 257 249 263 140 208 240 243 248 249 244 232 219 227 230 232 232 232 229 224 228 226 220 220 219 219 213 210 209 198 203 206 205 206 207 206 204 204 201 199 193 194 196 200 201 202 205 212 218 220 221 209 194 192 196 207 209 209 207 200 205 221
190 171 163 162 168 197 204 177 168 185 211 246 269 82 59 65 66 151 197 201 101 226 248 216 167 242 265 262 243 168 222 241 243 242 243 241 222 215 223 225 228 233 231 227 233 235 229 222 222 221 218 204 203 204 205 208 208 211 208 207 205 208 203 200 198 195 198 199 203 207 209 211 215 212 216 213 204 198 201 212 212 206 203 200 201 217
334 65 162 174 196 190 179 164 181 192 211 109 204 112 60 47 79 52 78 123 162 233 239 170 180 217 271 256 239 184 213 223 245 255 243 230 229 235 232 226 227 232 235 233 237 242 241 238 231 225 224 225 214 199 207 208 206 207 206 207 208 210 205 202 200 195 199 200 203 211 211 211 212 207 207 208 212 205 204 211 209 205 205 203 208 211
65 123 153 241 129 124 133 161 182 188 153 151 210 144 109 50 67 103 104 168 229 252 184 189 186 195 241 250 228 222 198 222 236 246 250 232 229 240 239 236 238 239 239 241 241 245 243 242 233 221 228 223 214 200 207 212 208 206 206 207 211 211 207 203 199 197 200 201 207 213 214 215 214 209 206 211 212 204 205 206 208 204 203 207 206 209
239 168 167 152 207 147 162 160 153 127 167 165 157 146 168 182 157 208 142 207 215 240 83 327 181 207 234 243 268 271 246 237 240 257 263 252 243 236 234 217 206 202 230 244 243 241 233 228 227 220 226 221 209 204 205 207 205 207 209 207 210 212 205 202 196 195 197 200 205 207 211 216 214 214 217 213 211 202 204 204 207 203 206 206 211 220
205 176 183 175 120 180 157 177 142 169 178 171 177 171 174 176 167 217 204 265 283 84 70 125 182 242 275 269 237 244 243 241 238 229 235 246 247 241 224 214 218 194 204 228 233 236 235 230 225 221 219 214 209 209 204 202 201 204 208 210 213 216 204 201 197 197 197 200 202 200 204 210 207 211 214 215 214 214 213 209 208 207 206 205 209 209
186 203 214 170 191 162 184 187 178 174 168 190 186 183 190 183 183 197 201 209 220 245 110 201 135 236 163 218 44 258 266 269 273 281 265 248 252 273 287 276 246 248 240 223 231 234 239 241 238 235 229 220 211 207 204 199 201 201 207 210 214 217 208 202 205 202 201 201 197 191 198 203 205 211 213 219 218 216 213 211 210 209 208 210 212 208
224 259 174 189 154 168 184 191 181 161 182 185 183 204 213 209 102 217 219 237 221 166 179 179 216 261 210 350 294 228 236 255 245 250 233 247 235 240 261 256 251 245 240 223 235 242 241 237 230 229 234 233 226 215 207 205 201 200 207 207 211 212 208 204 206 210 209 207 199 199 205 208 206 206 211 213 213 216 213 209 208 212 211 215 216 213
173 226 138 163 337 179 187 174 183 156 191 174 181 207 206 9 196 72 71 60 35 297 249 169 263 260 287 284 262 259 253 247 245 234 223 235 220 233 254 252 249 246 243 248 240 239 245 243 232 225 227 229 231 225 216 211 205 205 205 207 213 214 211 207 205 209 208 208 207 211 211 211 210 211 206 208 212 211 211 211 213 216 217 217 216 215
175 185 169 166 186 199 191 182 173 188 155 151 210 192 83 335 353 213 227 118 241 252 253 163 220 236 198 265 226 206 229 236 227 220 196 212 210 228 238 237 232 228 237 243 255 257 256 256 252 239 229 227 228 229 228 222 216 213 213 211 212 212 210 209 205 205 204 203 210 214 214 215 213 216 219 219 219 214 209 211 217 217 220 217 213 209
194 90 234 199 183 179 167 171 197 209 11 202 202 153 175 186 203 212 212 227 213 231 246 198 226 237 211 217 205 213 204 231 255 225 150 216 205 222 238 251 253 277 289 270 260 255 249 240 243 242 246 248 241 240 239 229 217 216 218 217 216 216 211 208 205 202 203 204 206 211 212 213 215 218 220 222 220 214 209 215 216 219 221 221 213 206
199 186 162 212 186 136 162 178 197 194 221 257 293 198 336 110 205 178 199 326 207 249 271 251 131 245 193 222 209 246 247 262 174 233 229 227 227 225 244 258 262 287 285 273 263 253 240 231 236 244 252 254 244 235 229 224 218 218 216 213 216 219 212 207 204 197 202 203 206 207 209 212 213 217 219 224 223 223 221 219 218 220 224 223 216 224
181 234 196 134 145 146 198 185 198 183 184 209 195 188 187 249 319 22 198 213 194 232 238 267 257 249 183 184 200 239 232 240 237 216 221 222 233 233 216 236 279 272 258 253 250 263 283 296 290 264 263 273 289 281 261 228 217 216 208 210 209 209 211 211 209 203 208 204 210 210 210 213 214 223 225 227 227 230 228 225 223 226 227 223 222 225
181 194 203 131 177 187 197 191 200 192 188 188 185 193 186 175 176 184 215 175 231 216 235 230 251 257 188 181 194 220 224 224 228 214 215 218 219 236 230 240 240 242 235 248 254 247 266 273 271 272 245 241 261 255 237 227 225 220 212 209 206 207 209 207 205 205 205 204 206 207 210 211 209 219 226 223 224 225 228 227 226 226 225 225 225 218
206 156 161 176 189 193 198 203 233 203 199 201 196 207 190 185 176 205 214 196 198 232 4 292 319 256 154 172 200 214 208 225 233 159 254 245 245 242 233 235 239 244 259 260 261 254 249 244 246 252 249 242 242 247 234 221 218 221 217 211 210 208 215 209 209 203 203 205 206 210 210 209 210 220 221 221 222 223 224 227 227 225 223 222 222 213
133 155 141 162 37 19 44 1 67 194 173 180 245 260 200 209 198 199 210 179 203 174 215 231 248 264 111 217 195 199 191 224 208 204 232 249 241 253 269 274 263 249 242 246 247 254 255 256 241 238 233 220 220 224 221 215 222 224 219 216 212 218 220 212 211 206 209 212 213 211 206 209 212 222 222 222 223 223 224 223 226 223 218 218 214 209
193 203 165 154 168 147 44 58 115 17 185 202 190 200 202 206 215 229 54 83 220 212 204 210 240 249 164 101 116 322 20 255 209 214 228 240 247 248 256 251 255 260 271 257 245 240 245 247 238 230 222 215 210 217 214 210 208 212 219 216 221 223 215 211 201 209 211 212 215 208 213 212 213 221 221 223 226 226 225 223 222 212 214 210 212 210
227 172 174 175 176 179 188 193 184 179 191 191 201 193 200 200 199 186 217 175 233 203 203 220 243 244 70 21 130 286 3 298 302 354 268 238 260 255 244 244 266 264 258 266 264 255 261 261 252 241 231 231 221 219 211 201 204 209 215 224 216 214 198 203 188 210 205 206 215 216 218 219 217 222 223 224 226 226 222 217 215 210 211 204 212 206
209 212 205 199 194 195 199 206 195 175 172 191 191 191 195 201 200 201 208 210 222 222 221 222 231 92 100 207 201 213 185 235 246 210 207 221 227 235 249 257 256 273 278 274 276 286 304 276 260 241 230 229 237 220 220 206 197 193 202 209 201 200 196 187 185 193 200 211 218 224 225 222 222 224 225 226 226 225 219 215 212 207 210 197 209 207
23 257 209 215 223 226 52 82 122 163 180 192 188 196 194 192 195 201 207 220 215 224 242 246 239 255 236 196 209 211 216 230 223 235 230 225 231 212 204 221 244 256 253 250 243 216 202 284 281 259 238 237 243 243 237 220 221 206 195 199 182 184 190 178 190 197 206 206 216 223 225 224 224 226 226 227 225 222 220 216 213 208 210 195 200 200
198 223 215 223 226 213 354 174 161 185 206 202 199 189 188 184 193 200 213 224 211 203 231 239 195 231 247 218 199 209 196 210 206 217 219 219 192 163 200 223 234 219 207 239 228 193 163 205 246 254 243 246 271 263 255 238 227 216 224 221 202 183 194 182 189 206 211 217 225 227 224 225 228 225 226 224 226 223 218 218 211 210 206 205 211 212
199 229 214 212 226 220 212 201 182 180 198 202 197 193 185 187 196 207 222 226 215 224 237 253 228 240 240 224 198 189 208 227 254 340 37 112 253 199 178 212 234 225 195 202 241 231 174 186 210 229 239 237 228 237 234 228 222 217 211 210 198 198 192 174 202 209 218 227 232 234 221 224 231 228 229 226 224 225 222 217 214 210 210 211 209 211
198 216 199 198 227 230 221 209 246 197 185 197 195 195 191 195 204 213 227 230 226 237 248 252 242 247 246 193 169 166 200 201 269 245 212 205 194 193 201 211 224 223 202 195 203 221 227 214 213 210 219 234 223 224 228 220 203 181 210 212 199 198 192 186 198 208 221 233 229 231 232 228 227 225 227 226 225 220 212 208 207 211 214 212 208 209
187 250 151 185 214 229 220 211 209 222 211 195 193 189 183 184 204 214 222 220 204 217 233 242 250 253 242 167 205 197 206 207 228 233 221 224 190 210 212 223 223 220 171 228 229 239 224 213 206 208 216 219 213 199 214 215 201 207 231 190 203 193 175 189 204 217 227 236 234 226 226 228 228 224 227 223 223 214 208 207 207 213 211 208 208 207
211 195 178 188 212 224 218 206 205 200 342 239 204 185 185 196 205 211 222 223 212 220 233 232 234 240 117 152 205 205 218 225 238 245 222 242 286 225 220 212 205 181 195 222 223 232 238 229 211 203 212 219 224 214 196 185 190 215 204 195 201 164 184 199 206 217 237 235 230 230 225 227 227 230 229 225 222 213 209 208 214 215 210 213 204 186
225 228 218 186 212 229 203 187 165 206 229 223 197 196 188 195 199 205 216 221 216 218 236 238 245 109 174 207 208 214 210 223 229 244 170 198 223 233 215 230 228 205 201 227 247 241 239 240 241 232 225 224 228 192 153 180 198 205 178 175 156 180 187 193 203 210 228 229 229 226 224 224 226 230 229 219 212 210 215 214 214 212 211 203 189 200
194 203 255 251 206 223 113 124 180 224 232 231 208 200 202 202 199 211 226 226 218 223 243 248 245 227 205 210 225 222 225 232 241 255 247 234 222 236 233 202 221 232 221 231 241 244 242 239 241 242 243 241 239 191 176 205 216 182 165 172 178 186 183 199 202 214 219 224 227 221 224 222 223 229 225 209 204 203 217 218 218 212 204 197 198 200
182 187 147 238 4 43 178 170 215 233 240 300 106 171 198 221 224 214 236 234 218 214 221 231 235 237 215 239 270 339 242 247 254 252 246 241 228 235 246 242 219 210 234 233 231 238 235 230 220 212 225 236 229 214 192 217 179 182 198 165 206 180 197 196 209 225 219 226 224 219 218 219 222 228 221 210 199 207 213 218 214 210 197 196 205 208
187 177 179 211 167 225 137 202 215 348 340 128 140 191 169 196 200 197 220 231 219 225 230 252 252 221 229 216 121 159 124 73 265 259 239 232 207 189 215 226 216 216 227 241 243 248 253 257 262 267 256 226 194 177 202 212 171 175 167 184 205 188 197 200 222 229 220 227 225 212 209 213 219 221 218 210 208 217 216 217 216 212 190 199 205 203
208 191 179 201 213 196 206 218 233 245 252 226 216 204 194 209 208 213 251 270 174 202 214 231 236 228 224 183 171 139 140 165 247 256 239 169 181 205 201 215 218 224 227 231 241 251 262 275 284 262 229 270 273 233 221 174 159 167 190 202 191 189 202 205 229 231 225 232 225 205 203 209 213 218 216 211 216 219 217 216 214 211 192 202 201 208
5 51 108 199 187 188 210 222 214 225 240 279 316 190 186 132 112 106 199 258 210 212 222 224 234 220 207 196 166 147 176 226 246 244 71 140 199 197 192 207 209 219 232 236 235 246 251 253 267 295 316 275 277 257 160 182 171 186 209 210 203 195 204 215 228 225 224 230 197 189 203 203 210 216 215 218 222 217 214 208 208 198 187 206 203 210
135 171 136 182 196 205 195 205 220 192 247 100 343 153 159 135 113 129 217 251 287 326 233 223 240 216 204 191 154 180 192 235 242 252 119 171 198 209 209 213 211 216 229 244 247 247 289 1 336 298 285 283 265 281 121 155 178 214 226 229 210 199 216 225 220 220 223 232 192 198 199 200 205 212 214 219 221 215 215 204 197 198 193 198 203 203
170 170 197 208 202 197 193 220 236 274 324 24 333 295 158 150 147 192 211 247 0 334 345 311 267 227 187 184 165 194 212 223 245 61 110 310 209 243 31 19 334 202 232 247 269 313 286 282 259 266 266 266 317 12 59 159 192 219 222 227 213 222 221 228 247 297 242 194 201 204 205 201 203 211 217 219 218 217 215 208 206 193 194 196 202 200
163 140 207 195 225 216 209 231 230 308 102 314 298 327 323 137 202 202 34 308 283 339 329 334 333 317 201 183 179 203 217 225 232 81 61 51 55 52 40 345 338 14 66 301 319 347 353 21 254 263 272 276 299 284 248 219 233 241 241 234 238 239 242 267 288 256 209 199 205 204 210 222 224 222 223 217 210 211 217 213 205 203 199 202 199 204
180 171 189 192 175 198 202 233 235 245 23 349 295 2 17 162 341 326 292 327 10 340 343 11 13 349 343 287 220 224 276 39 30 27 38 48 100 83 61 21 20 336 344 335 307 345 9 305 283 272 285 315 319 305 301 233 248 253 251 248 253 297 327 303 259 239 234 230 223 222 220 217 213 215 211 209 206 213 222 204 199 203 196 199 203 209
180 177 164 212 192 185 183 206 223 27 329 330 25 121 57 25 359 341 351 14 2 10 4 18 16 5 347 20 48 41 43 21 33 4 6 27 14 52 41 22 354 352 350 347 341 344 348 328 335 330 332 325 321 316 326 227 250 259 261 260 300 321 312 310 271 249 243 241 236 233 230 221 217 211 201 199 194 202 208 208 201 202 208 208 209 213
181 200 199 191 171 219 226 103 115 137 67 33 70 84 78 51 30 20 49 37 21 20 346 24 15 6 17 17 58 51 51 34 33 32 44 3 16 16 9 9 22 5 354 345 346 337 316 302 319 329 326 325 324 320 319 289 264 271 264 278 359 326 321 300 288 266 258 255 255 249 247 227 218 210 207 195 187 191 192 193 185 201 203 202 214 216
32 245 226 80 103 98 48 69 121 104 86 79 71 74 77 65 47 35 32 41 28 15 11 23 9 17 25 12 50 46 49 16 36 28 30 28 26 22 16 20 36 39 50 41 14 9 327 313 310 338 325 330 338 332 330 322 282 273 272 323 347 344 334 331 318 297 274 275 262 254 224 223 224 215 211 202 206 207 208 199 195 203 201 197 207 213
258 146 43 106 187 146 125 131 86 94 83 77 85 85 83 77 57 31 37 36 20 359 6 8 11 20 21 26 42 44 40 23 30 25 20 21 17 17 16 13 12 18 19 14 5 339 336 343 351 15 3 341 340 350 339 334 321 298 310 318 324 326 318 310 300 289 288 281 283 255 206 213 223 192 191 205 214 217 219 215 214 212 212 207 209 210
239 189 77 98 61 131 133 139 121 93 74 63 63 66 57 49 45 44 39 24 11 4 357 358 357 21 13 27 21 27 29 25 24 14 10 10 8 7 8 8 4 358 11 16 7 0 351 2 355 353 3 9 4 348 338 327 322 321 319 313 318 315 305 292 279 278 280 275 269 267 217 216 206 202 200 196 204 211 211 213 213 216 216 214 213 214
333 90 170 175 111 89 69 121 160 139 87 50 43 59 64 45 39 35 32 32 27 30 19 19 26 19 27 24 16 22 26 21 22 8 5 356 5 6 4 358 357 0 351 3 358 6 8 352 350 346 351 354 21 2 339 330 323 328 327 327 327 321 306 295 285 276 276 273 261 253 235 228 212 205 206 192 203 220 219 212 212 218 232 226 223 221
52 131 261 117 123 136 143 164 203 184 99 17 23 50 52 29 30 44 32 34 27 22 15 23 22 23 27 28 24 25 24 12 12 10 6 1 356 354 350 355 355 356 357 2 348 354 358 358 353 342 343 348 33 35 1 333 324 328 336 334 328 325 309 304 299 281 275 271 270 257 234 227 213 201 208 208 208 219 229 226 226 231 231 237 215 229
85 172 126 99 105 128 103 58 59 80 91 67 62 46 50 15 41 49 38 29 23 19 16 25 21 18 20 16 24 26 19 12 5 9 13 8 352 349 345 353 353 354 357 355 355 354 354 349 346 344 342 342 349 9 71 357 326 324 330 333 329 325 314 307 293 285 278 270 269 277 277 255 233 206 208 214 222 232 236 239 225 223 230 240 243 222